| time (UTC) | temp F | wind direction | speed MPH | gust MPH | rain 1hr in | rain 24hr in | rain mn in | humidity % | barometer mb |
| 20260904151911 | 88 | 261 | 6.0 | 13.0 | 0.00 | 0.00 | 0.00 | 47 | 1017.7 |
| 20260904150411 | 88 | 271 | 5.0 | 12.0 | 0.00 | 0.00 | 0.00 | 47 | 1018.0 |
| 20260904144911 | 89 | 263 | 7.0 | 9.0 | 0.00 | 0.00 | 0.00 | 44 | 1018.1 |
| 20260904143411 | 88 | 236 | 3.0 | 12.0 | 0.00 | 0.00 | 0.00 | 43 | 1018.5 |
| 20260904141911 | 88 | 219 | 7.0 | 10.0 | 0.00 | 0.00 | 0.00 | 46 | 1018.5 |
| 20260904140410 | 89 | 206 | 6.0 | 14.0 | 0.00 | 0.00 | 0.00 | 43 | 1018.7 |
| 20260904134910 | 89 | 206 | 7.0 | 13.0 | 0.00 | 0.00 | 0.00 | 42 | 1018.6 |
| 20260904133410 | 88 | 224 | 6.0 | 12.0 | 0.00 | 0.00 | 0.00 | 44 | 1018.9 |
| 20260904131910 | 88 | 263 | 5.0 | 10.0 | 0.00 | 0.00 | 0.00 | 45 | 1019.0 |
| 20260904130410 | 87 | 194 | 8.0 | 18.0 | 0.00 | 0.00 | 0.00 | 42 | 1019.2 |
| 20260904124912 | 88 | 209 | 9.0 | 12.0 | 0.00 | 0.00 | 0.00 | 44 | 1019.5 |
| 20260904123412 | 87 | 231 | 5.0 | 11.0 | 0.00 | 0.00 | 0.00 | 44 | 1019.8 |
| 20260904121912 | 87 | 258 | 5.0 | 16.0 | 0.00 | 0.00 | 0.00 | 42 | 1020.0 |
| 20260904120411 | 86 | 273 | 5.0 | 9.0 | 0.00 | 0.00 | 0.00 | 45 | 1020.1 |
| 20260904114911 | 85 | 301 | 3.0 | 6.0 | 0.00 | 0.00 | 0.00 | 49 | 1020.2 |
| 20260904113411 | 84 | 295 | 1.0 | 3.0 | 0.00 | 0.00 | 0.00 | 50 | 1020.7 |
| 20260904111911 | 83 | 9 | 1.0 | 3.0 | 0.00 | 0.00 | 0.00 | 51 | 1020.9 |
| 20260904104911 | 82 | 48 | 5.0 | 6.0 | 0.00 | 0.00 | 0.00 | 55 | 1021.4 |
| 20260904103410 | 80 | 57 | 3.0 | 6.0 | 0.00 | 0.00 | 0.00 | 56 | 1021.2 |
| 20260904101910 | 80 | 92 | 1.0 | 7.0 | 0.00 | 0.00 | 0.00 | 57 | 1021.6 |
| 20260904100410 | 79 | 69 | 2.0 | 4.0 | 0.00 | 0.00 | 0.00 | 58 | 1021.7 |
| 20260904094910 | 78 | 23 | 1.0 | 4.0 | 0.00 | 0.00 | 0.00 | 62 | 1021.8 |
| 20260904093410 | 77 | 288 | 0.0 | 2.0 | 0.00 | 0.00 | 0.00 | 61 | 1021.9 |
| 20260904091910 | 76 | 285 | 1.0 | 4.0 | 0.00 | 0.00 | 0.00 | 62 | 1022.1 |
| 20260904090410 | 75 | 346 | 1.0 | 2.0 | 0.00 | 0.00 | 0.00 | 62 | 1022.2 |
| 20260904084914 | 74 | 331 | 2.0 | 3.0 | 0.00 | 0.00 | 0.00 | 64 | 1022.3 |
| 20260904083413 | 73 | 71 | 2.0 | 3.0 | 0.00 | 0.00 | 0.00 | 64 | 1022.3 |
| 20260904081913 | 73 | 22 | 1.0 | 3.0 | 0.00 | 0.00 | 0.00 | 62 | 1022.3 |
| 20260904080413 | 72 | 309 | 1.0 | 3.0 | 0.00 | 0.00 | 0.00 | 69 | 1022.2 |
| 20260904074913 | 71 | 300 | 3.0 | 4.0 | 0.00 | 0.00 | 0.00 | 72 | 1022.1 |
| 20260904073413 | 70 | 296 | 3.0 | 4.0 | 0.00 | 0.00 | 0.00 | 73 | 1022.2 |
| 20260904071913 | 69 | 297 | 1.0 | 4.0 | 0.00 | 0.00 | 0.00 | 75 | 1022.1 |
| 20260904070413 | 67 | 290 | 2.0 | 4.0 | 0.00 | 0.00 | 0.00 | 78 | 1022.1 |
| 20260904064913 | 67 | 310 | 1.0 | 4.0 | 0.00 | 0.00 | 0.00 | 80 | 1022.2 |
| 20260904063413 | 65 | 311 | 2.0 | 3.0 | 0.00 | 0.00 | 0.00 | 83 | 1022.2 |
| 20260904061912 | 64 | 205 | 0.0 | 0.0 | 0.00 | 0.00 | 0.00 | 85 | 1022.2 |
| 20260904060412 | 63 | 205 | 0.0 | 0.0 | 0.00 | 0.00 | 0.00 | 85 | 1022.2 |
| 20260904054912 | 62 | 205 | 0.0 | 0.0 | 0.00 | 0.00 | 0.00 | 87 | 1022.1 |
| 20260904053412 | 62 | 205 | 0.0 | 0.0 | 0.00 | 0.00 | 0.00 | 87 | 1022.1 |
| 20260904051912 | 62 | 205 | 0.0 | 0.0 | 0.00 | 0.00 | 0.00 | 87 | 1022.0 |
| 20260904050412 | 62 | 205 | 0.0 | 2.0 | 0.00 | 0.00 | 0.00 | 88 | 1021.9 |
| 20260904044914 | 60 | 205 | 2.0 | 3.0 | 0.00 | 0.00 | 0.00 | 88 | 1021.8 |
| 20260904043414 | 61 | 205 | 2.0 | 3.0 | 0.00 | 0.00 | 0.00 | 87 | 1021.7 |
| 20260904041914 | 62 | 205 | 0.0 | 0.0 | 0.00 | 0.00 | 0.00 | 85 | 1021.6 |
| 20260904040414 | 62 | 205 | 0.0 | 0.0 | 0.00 | 0.00 | 0.00 | 86 | 1021.3 |
| 20260904034914 | 62 | 205 | 0.0 | 1.0 | 0.00 | 0.00 | 0.00 | 86 | 1021.3 |
| 20260904033414 | 63 | 205 | 0.0 | 0.0 | 0.00 | 0.00 | 0.00 | 84 | 1021.5 |
| 20260904031914 | 64 | 205 | 0.0 | 3.0 | 0.00 | 0.00 | 0.00 | 83 | 1021.2 |
| 20260904030413 | 64 | 135 | 0.0 | 1.0 | 0.00 | 0.00 | 0.00 | 82 | 1021.5 |
| 20260904024913 | 64 | 134 | 0.0 | 2.0 | 0.00 | 0.00 | 0.00 | 84 | 1021.7 |
| 20260904023413 | 64 | 134 | 0.0 | 2.0 | 0.00 | 0.00 | 0.00 | 84 | 1021.7 |
| 20260904021913 | 63 | 134 | 0.0 | 0.0 | 0.00 | 0.00 | 0.00 | 85 | 1021.8 |
| 20260904020413 | 63 | 134 | 0.0 | 1.0 | 0.00 | 0.00 | 0.00 | 85 | 1021.6 |
| 20260904014913 | 64 | 134 | 0.0 | 1.0 | 0.00 | 0.00 | 0.00 | 83 | 1021.5 |
| 20260904013413 | 64 | 134 | 2.0 | 3.0 | 0.00 | 0.00 | 0.00 | 83 | 1021.2 |
| 20260904011913 | 65 | 155 | 0.0 | 2.0 | 0.00 | 0.00 | 0.00 | 82 | 1020.9 |
| 20260904010412 | 64 | 155 | 1.0 | 3.0 | 0.00 | 0.00 | 0.00 | 81 | 1021.2 |
| 20260904004912 | 65 | 151 | 1.0 | 3.0 | 0.00 | 0.00 | 0.00 | 81 | 1021.1 |
| 20260904003412 | 66 | 151 | 1.0 | 2.0 | 0.00 | 0.00 | 0.00 | 79 | 1021.2 |
| 20260904001912 | 66 | 151 | 0.0 | 0.0 | 0.00 | 0.00 | 0.00 | 79 | 1021.2 |
| 20260904000412 | 66 | 151 | 0.0 | 0.0 | 0.00 | 0.00 | 0.00 | 79 | 1021.1 |
| 20260903234912 | 66 | 150 | 0.0 | 0.0 | 0.00 | 0.00 | 0.00 | 78 | 1021.3 |
| 20260903233412 | 66 | 151 | 0.0 | 0.0 | 0.00 | 0.00 | 0.00 | 78 | 1021.1 |
| 20260903231912 | 66 | 151 | 0.0 | 0.0 | 0.00 | 0.00 | 0.00 | 77 | 1021.2 |
| 20260903230411 | 66 | 151 | 1.0 | 3.0 | 0.00 | 0.00 | 0.00 | 79 | 1021.1 |
| 20260903224911 | 66 | 149 | 1.0 | 3.0 | 0.00 | 0.00 | 0.00 | 78 | 1021.1 |
| 20260903223411 | 65 | 192 | 0.0 | 2.0 | 0.00 | 0.00 | 0.00 | 79 | 1020.8 |
| 20260903221911 | 66 | 192 | 2.0 | 3.0 | 0.00 | 0.00 | 0.00 | 77 | 1020.8 |
| 20260903220411 | 67 | 190 | 1.0 | 2.0 | 0.00 | 0.00 | 0.00 | 73 | 1020.9 |
| 20260903214911 | 67 | 190 | 0.0 | 2.0 | 0.00 | 0.00 | 0.00 | 73 | 1021.2 |
| 20260903213411 | 68 | 190 | 0.0 | 1.0 | 0.00 | 0.00 | 0.00 | 71 | 1021.0 |
| 20260903211910 | 68 | 190 | 1.0 | 2.0 | 0.00 | 0.00 | 0.00 | 69 | 1020.9 |
| 20260903210410 | 67 | 190 | 1.0 | 3.0 | 0.00 | 0.00 | 0.00 | 72 | 1020.8 |
| 20260903204911 | 67 | 190 | 0.0 | 2.0 | 0.00 | 0.00 | 0.00 | 72 | 1020.3 |
| 20260903203411 | 66 | 190 | 1.0 | 2.0 | 0.00 | 0.00 | 0.00 | 72 | 1020.5 |
| 20260903201911 | 67 | 190 | 0.0 | 2.0 | 0.00 | 0.00 | 0.00 | 72 | 1020.3 |
| 20260903200411 | 67 | 190 | 1.0 | 2.0 | 0.00 | 0.00 | 0.00 | 72 | 1020.3 |
| 20260903194911 | 67 | 193 | 0.0 | 1.0 | 0.00 | 0.00 | 0.00 | 71 | 1020.2 |
| 20260903193411 | 68 | 193 | 1.0 | 3.0 | 0.00 | 0.00 | 0.00 | 70 | 1020.0 |
| 20260903191911 | 68 | 193 | 1.0 | 2.0 | 0.00 | 0.00 | 0.00 | 69 | 1019.9 |
| 20260903190410 | 68 | 194 | 0.0 | 2.0 | 0.00 | 0.00 | 0.00 | 69 | 1019.7 |
| 20260903184912 | 69 | 194 | 1.0 | 2.0 | 0.00 | 0.00 | 0.00 | 68 | 1019.7 |
| 20260903183412 | 70 | 194 | 1.0 | 3.0 | 0.00 | 0.00 | 0.00 | 68 | 1019.8 |
| 20260903181911 | 72 | 194 | 0.0 | 1.0 | 0.00 | 0.00 | 0.00 | 64 | 1019.7 |
| 20260903180411 | 74 | 172 | 1.0 | 5.0 | 0.00 | 0.00 | 0.00 | 57 | 1019.5 |
| 20260903174911 | 75 | 174 | 1.0 | 4.0 | 0.00 | 0.00 | 0.00 | 57 | 1019.4 |
| 20260903173411 | 75 | 175 | 1.0 | 4.0 | 0.00 | 0.00 | 0.00 | 57 | 1019.4 |
| 20260903171911 | 77 | 254 | 1.0 | 2.0 | 0.00 | 0.00 | 0.00 | 55 | 1019.3 |
| 20260903170411 | 80 | 294 | 1.0 | 3.0 | 0.00 | 0.00 | 0.00 | 57 | 1019.2 |
| 20260903164910 | 82 | 301 | 2.0 | 3.0 | 0.00 | 0.00 | 0.00 | 55 | 1019.3 |
| 20260903163410 | 83 | 302 | 1.0 | 2.0 | 0.00 | 0.00 | 0.00 | 54 | 1019.2 |
| 20260903161910 | 83 | 302 | 1.0 | 2.0 | 0.00 | 0.60 | 0.00 | 51 | 1019.2 |
| 20260903160410 | 85 | 44 | 0.0 | 0.0 | 0.00 | 0.00 | 0.00 | 49 | 1019.3 |
| 20260903154910 | 87 | 44 | 0.0 | 0.0 | 0.00 | 0.00 | 0.00 | 42 | 1019.5 |
| 20260903153410 | 85 | 44 | 0.0 | 0.0 | 0.00 | 0.00 | 0.00 | 44 | 1019.5 |